Weather in Bada

Russia / Zabaykalsky Krai     51°23′19″N   109°51′47″E
temp.,
°C
wind,
m/s
gust,
m/s
humid.,
%
clouds,
%
prec.,
mm/h
press.,
hPa
HPBL,
m
24 may, tue
tue2400:00+6nnw2560100 0.2 1017113
03:00+5nw1165100 0.3 102018
06:00+3nw21755 0.0 102415
09:00+11nw12482 0.0 1024649
12:00+17n23275 0.0 10232179
15:00+20n22192 0.0 10212659
18:00+20nne22180 0.0 10202526
21:00+14ene11320 0.0 102111
25 may, wed
wed2500:00+10w11381 0.0 102310
03:00+8wsw11433 0.0 102410
06:00+7ssw11478 0.0 102410
09:00+16ssw1130100 0.0 1022323
12:00+21w2321100 0.0 10192810
15:00+22w331874 0.0 10163450
18:00+21wnw4320100 0.0 10143087
21:00+16wnw23345 0.0 101448
26 may, thu
thu2600:00+11wsw11450 0.0 101411
03:00+9ssw1150100 0.0 101311
06:00+8s1154100 0.0 101213
09:00+16s233495 0.0 1009307
12:00+23wsw46215 0.0 10052577
15:00+25wnw68155 0.0 10013411
18:00+24nw79156 0.0 10003542
21:00+17nw610363 0.0 10021318
27 may, fri
fri2700:00+10w22700 0.0 100532
03:00+10wnw411590 0.0 1004716
06:00+9wnw513610 0.0 10041226
09:00+11wnw6104853 0.0 10041763
12:00+14nw610275 0.0 10032355
15:00+16nw710204 0.0 10022798
18:00+14nw710200 0.0 10022340
21:00+11nnw4828100 0.0 10031080
28 may, sat
sat2800:00+5wnw114495 0.0 100511
03:00+3wnw2249100 0.0 100627
06:00+4nw1150100 0.0 100514
09:00+8nnw3438100 0.0 10051058
12:00+12nnw46244 0.0 10032323
15:00+14nw781694 0.0 10023591
18:00+12nw782089 0.0 10042933
21:00+8nw69320 0.0 10071445